Location: Hope
(40.9110°N, 74.9680°W)
Time: 14:45:25
(UTC-04:00)

ISS - Visible Passes

Search period start: 19 March 2019 00:00
Search period end: 29 March 2019 00:00
Orbit: 406 x 411 km, 51.6° (Epoch: 20 March)

Date Brightness Start Highest point End Pass type
(mag) Time Alt. Az. Time Alt. Az. Time Alt. Az.
19 Mar -1.4 20:09:54 10° SSE 20:10:07 10° SSE 20:10:07 10° SSE visible
20 Mar -2.8 20:53:04 10° SW 20:55:13 35° SSW 20:55:13 35° SSW visible
21 Mar -2.9 20:02:29 10° SSW 20:05:23 29° SE 20:07:17 17° E visible
21 Mar -1.1 21:38:51 10° W 21:40:05 19° W 21:40:05 19° W visible
22 Mar -3.3 20:47:34 10° WSW 20:50:49 57° NNW 20:51:55 35° NNE visible
23 Mar -3.9 19:56:28 10° SW 19:59:46 79° SE 20:03:04 10° NE visible
23 Mar -1.3 21:34:05 10° WNW 21:36:19 20° NNW 21:36:19 20° NNW visible
24 Mar -1.9 20:42:30 10° W 20:45:25 28° NNW 20:47:45 14° NNE visible
25 Mar -2.7 19:51:04 10° WSW 19:54:15 43° NNW 19:57:26 10° NE visible
25 Mar -1.1 21:29:28 10° NW 21:31:27 15° N 21:31:47 15° N visible
26 Mar -1.3 20:37:45 10° WNW 20:40:08 18° NNW 20:42:30 10° NNE visible
27 Mar -1.7 19:46:05 10° W 19:48:50 24° NNW 19:51:35 10° NE visible
27 Mar -1.0 21:24:40 10° NNW 21:26:17 13° N 21:26:45 13° N visible
28 Mar -1.1 20:33:04 10° NW 20:34:53 14° N 20:36:43 10° NNE visible
28 Mar -0.3 22:10:25 10° NNW 22:10:29 10° NNW 22:10:29 10° NNW visible
